Weather reports worldwide

Advertisment
Weybourne, United Kingdom (3488): temperature & dewpoint: 17.07.2019 09:00:00 - 23.07.2019 09:00:00 (BST)Weybourne, United Kingdom (3488): wind speed & gusts: 17.07.2019 09:00:00 - 23.07.2019 09:00:00 (BST)Weybourne, United Kingdom (3488): wind direction: 17.07.2019 09:00:00 - 23.07.2019 09:00:00 (BST)Weybourne, United Kingdom (3488): reduced air pressure: 17.07.2019 09:00:00 - 23.07.2019 09:00:00 (BST)Weybourne, United Kingdom (3488): visibility: 17.07.2019 09:00:00 - 23.07.2019 09:00:00 (BST)Weybourne, United Kingdom (3488): sunshine duration: 17.07.2019 09:00:00 - 23.07.2019 09:00:00 (BST)Weybourne, United Kingdom (3488): precipitation: 17.07.2019 09:00:00 - 23.07.2019 09:00:00 (BST)
Date & Time tt [°C] td [°C] ff [km/h] ff [kn] fx [km/h] fx [kn] dd ppp [hPa] vv [km] sd [min] rr [mm]
23.07.2019 09:00:00 - - - - - - - - - - -
23.07.2019 08:00:00 21,9 15,9 2 1 - - SW 1020,5 50 60 0,0
23.07.2019 07:00:00 19,2 17,6 8 4 - - SSW 1020,6 45 60 0,0
23.07.2019 06:00:00 16,1 15,4 9 5 - - SSW 1020,6 40 0 0,0
23.07.2019 05:00:00 15,6 14,7 9 5 - - SSW 1020,5 30 0 0,0
23.07.2019 04:00:00 16,5 15,3 13 7 - - SSW 1020,7 40 0 0,0
23.07.2019 03:00:00 17,1 15,6 13 7 - - SW 1020,5 45 0 0,0
23.07.2019 02:00:00 18,0 16,0 15 8 - - SSW 1020,7 50 0 0,0
23.07.2019 01:00:00 18,9 16,4 15 8 - - SSW 1020,6 50 - 0,0
23.07.2019 00:00:00 19,1 16,7 15 8 - - SW 1020,8 45 0 0,0
22.07.2019 23:00:00 19,7 16,8 13 7 - - SW 1020,6 50 0 0,0
22.07.2019 22:00:00 21,1 16,9 13 7 - - SW 1020,2 50 0 0,0
22.07.2019 21:00:00 23,2 17,4 18 10 - - SW 1019,7 45 30 0,0
22.07.2019 20:00:00 25,3 17,7 24 13 - - SW 1019,4 50 60 0,0
22.07.2019 19:00:00 26,6 17,8 29 16 - - SW 1019,2 45 60 0,0
22.07.2019 18:00:00 28,2 18,1 26 14 - - WSW 1018,9 50 60 0,0
22.07.2019 17:00:00 28,4 17,7 34 18 48 26 WSW 1019,0 35 60 0,0
22.07.2019 16:00:00 28,4 18,1 34 18 50 27 SW 1019,1 50 60 0,0
22.07.2019 15:00:00 27,6 17,7 35 19 52 28 SW 1019,1 40 60 0,0
22.07.2019 14:00:00 27,3 18,3 35 19 52 28 SW 1019,3 29 60 0,0
22.07.2019 13:00:00 26,6 18,0 34 18 50 27 SW 1019,4 40 60 0,0
22.07.2019 12:00:00 25,8 18,2 34 18 48 26 SW 1019,4 50 60 0,0
22.07.2019 11:00:00 23,9 17,6 31 17 50 27 SW 1019,3 40 60 0,0
22.07.2019 10:00:00 22,6 17,5 35 19 52 28 SW 1019,3 30 60 0,0
22.07.2019 09:00:00 21,0 16,4 34 18 55 30 SW 1019,1 40 30 0,0
22.07.2019 08:00:00 18,7 15,7 37 20 55 30 SW 1018,6 45 0 0,0
22.07.2019 07:00:00 17,6 14,9 35 19 52 28 SW 1018,3 50 0 0,0
22.07.2019 06:00:00 17,2 14,4 37 20 52 28 SW 1018,0 50 0 0,0
22.07.2019 05:00:00 16,5 13,6 39 21 55 30 SSW 1017,7 50 0 0,0
22.07.2019 04:00:00 16,7 13,0 37 20 50 27 SSW 1018,0 50 0 0,0
22.07.2019 03:00:00 17,1 12,4 34 18 - - SSW 1018,4 50 0 0,0
22.07.2019 02:00:00 17,3 12,6 21 11 - - SSW 1018,9 50 0 0,0
22.07.2019 01:00:00 18,0 13,2 21 11 - - SSW 1019,4 50 - 0,0
22.07.2019 00:00:00 18,4 13,4 16 9 - - SSW 1019,7 40 0 0,0
21.07.2019 23:00:00 18,5 13,6 15 8 - - S 1019,8 50 0 0,0
21.07.2019 22:00:00 18,3 13,3 9 5 - - S 1019,8 50 0 0,0
21.07.2019 21:00:00 18,8 13,1 9 5 - - S 1019,6 50 0 0,0
21.07.2019 20:00:00 20,6 13,5 11 6 - - SW 1019,6 50 0 0,0
21.07.2019 19:00:00 21,7 13,9 15 8 - - WSW 1019,6 50 0 0,0
21.07.2019 18:00:00 21,8 12,9 18 10 - - SW 1019,4 40 0 0,0
21.07.2019 17:00:00 22,3 12,4 26 14 - - WSW 1019,8 50 6 0,0
21.07.2019 16:00:00 22,9 12,2 18 10 - - SW 1019,7 50 12 0,0
21.07.2019 15:00:00 22,9 12,4 22 12 - - SSW 1019,9 40 24 0,0
21.07.2019 14:00:00 22,9 12,0 21 11 - - SW 1019,8 40 18 0,0
21.07.2019 13:00:00 21,1 12,7 22 12 - - WSW 1020,2 35 6 0,0
21.07.2019 12:00:00 21,6 13,4 18 10 - - SW 1019,6 35 54 0,0
21.07.2019 11:00:00 20,6 13,2 16 9 - - SSW 1019,5 30 60 0,0
21.07.2019 10:00:00 18,5 13,7 15 8 - - SW 1019,4 40 36 0,0
21.07.2019 09:00:00 16,0 13,3 18 10 - - SW 1018,8 35 0 0,0
21.07.2019 08:00:00 15,5 13,0 16 9 - - WSW 1018,1 45 0 0,0
21.07.2019 07:00:00 14,2 12,0 21 11 - - SW 1017,7 50 42 0,0
21.07.2019 06:00:00 12,3 10,9 18 10 - - SW 1016,8 50 18 0,0
21.07.2019 05:00:00 11,6 10,4 21 11 - - SSW 1016,0 45 0 0,0
21.07.2019 04:00:00 11,7 10,4 21 11 - - SW 1015,7 35 0 0,0
21.07.2019 03:00:00 13,2 10,7 16 9 - - WSW 1015,1 50 0 0,0
21.07.2019 02:00:00 13,0 11,0 16 9 - - WSW 1014,7 50 0 0,0
21.07.2019 01:00:00 13,7 11,0 21 11 - - WSW 1014,1 50 - 0,0
21.07.2019 00:00:00 14,1 11,0 21 11 - - WSW 1013,7 50 0 0,0
20.07.2019 23:00:00 14,7 11,2 18 10 - - WSW 1012,9 50 0 0,0
20.07.2019 22:00:00 15,3 12,3 18 10 - - WSW 1012,2 50 0 0,0
20.07.2019 21:00:00 17,2 12,6 26 14 - - W 1010,7 50 48 0,0
20.07.2019 20:00:00 18,8 16,1 22 12 - - SW 1009,6 40 48 0,0
20.07.2019 19:00:00 18,4 16,3 21 11 - - WSW 1008,7 50 6 0,2
20.07.2019 18:00:00 16,6 15,2 24 13 - - WSW 1008,1 40 0 0,4
20.07.2019 17:00:00 17,0 15,5 24 13 67 36 W 1007,4 29 6 0,8
20.07.2019 16:00:00 23,7 14,0 35 19 50 27 WSW 1006,0 50 18 0,0
20.07.2019 15:00:00 23,8 13,8 39 21 52 28 WSW 1005,6 45 48 0,0
20.07.2019 14:00:00 23,2 15,0 31 17 52 28 SW 1005,1 50 54 0,0
20.07.2019 13:00:00 17,2 14,6 37 20 63 34 SW 1005,0 21 24 1,6
20.07.2019 12:00:00 21,2 15,7 26 14 46 25 SSW 1004,6 45 18 0,0
20.07.2019 11:00:00 19,7 16,2 29 16 48 26 SSW 1004,6 50 12 0,0
20.07.2019 10:00:00 20,1 16,4 29 16 46 25 SSW 1004,1 30 36 0,0
20.07.2019 09:00:00 18,5 16,2 28 15 - - SSW 1004,4 35 36 0,0
20.07.2019 08:00:00 17,1 15,6 24 13 - - S 1004,7 50 18 0,0
20.07.2019 07:00:00 16,0 15,3 18 10 - - S 1004,7 30 0 0,0
20.07.2019 06:00:00 16,0 15,3 24 13 - - S 1004,9 25 0 0,0
20.07.2019 05:00:00 16,7 16,1 22 12 - - S 1005,0 18 0 1,0
20.07.2019 04:00:00 17,3 16,6 21 11 - - S 1005,4 7 0 0,4
20.07.2019 03:00:00 17,4 16,6 18 10 - - S 1006,1 9 0 0,0
20.07.2019 02:00:00 17,5 16,8 21 11 - - S 1006,5 12 0 0,0
20.07.2019 01:00:00 17,7 16,9 21 11 - - SSW 1006,9 12 - 0,0
20.07.2019 00:00:00 17,6 16,9 21 11 - - S 1007,0 10 0 0,0
19.07.2019 23:00:00 17,4 16,8 18 10 - - S 1007,7 11 0 0,2
19.07.2019 22:00:00 17,3 16,6 24 13 - - S 1007,9 12 0 0,6
19.07.2019 21:00:00 17,3 16,5 24 13 - - S 1008,1 19 0 1,4
19.07.2019 20:00:00 17,9 15,8 21 11 - - S 1008,3 16 0 0,0
19.07.2019 19:00:00 18,6 15,3 26 14 - - S 1008,2 50 0 0,0
19.07.2019 18:00:00 19,0 14,7 28 15 - - SSW 1008,8 45 0 0,0
19.07.2019 17:00:00 19,6 14,4 28 15 - - S 1009,1 45 0 0,0
19.07.2019 16:00:00 19,8 14,1 28 15 - - S 1009,6 50 0 0,0
19.07.2019 15:00:00 20,5 14,3 21 11 - - S 1010,0 50 0 0,0
19.07.2019 14:00:00 18,8 13,6 18 10 - - SSW 1010,6 30 0 0,0
19.07.2019 13:00:00 19,0 12,1 16 9 - - SSW 1010,8 50 0 0,0
19.07.2019 12:00:00 18,8 12,0 21 11 - - SSW 1011,1 30 0 0,0
19.07.2019 11:00:00 18,6 12,1 16 9 - - S 1011,3 29 0 0,0
19.07.2019 10:00:00 18,9 12,7 13 7 - - S 1011,4 35 36 0,0
19.07.2019 09:00:00 17,9 12,8 13 7 - - S 1011,7 50 30 0,0
19.07.2019 08:00:00 17,5 13,0 11 6 - - SSW 1011,7 45 60 0,0
19.07.2019 07:00:00 15,2 11,8 11 6 - - SSW 1011,6 40 54 0,0
19.07.2019 06:00:00 12,3 10,2 13 7 - - SSW 1011,5 45 12 0,0
19.07.2019 05:00:00 12,1 10,1 15 8 - - SSW 1011,4 50 0 0,0
19.07.2019 04:00:00 12,4 10,5 18 10 - - SSW 1011,6 50 0 0,0
19.07.2019 03:00:00 12,9 10,9 16 9 - - SSW 1011,5 50 0 0,0
19.07.2019 02:00:00 13,8 11,6 15 8 - - SSW 1011,4 50 0 0,0
19.07.2019 01:00:00 13,4 12,2 13 7 - - SSW 1011,5 50 - 0,0
19.07.2019 00:00:00 14,0 12,4 9 5 - - SSW 1011,1 50 0 0,0
18.07.2019 23:00:00 14,7 12,0 8 4 - - S 1010,9 50 0 0,0
18.07.2019 22:00:00 15,9 12,8 9 5 - - SSW 1010,8 50 0 0,0
18.07.2019 21:00:00 17,6 13,3 5 3 - - W 1010,4 50 0 0,0
18.07.2019 20:00:00 18,7 12,7 13 7 - - W 1009,9 50 0 0,0
18.07.2019 19:00:00 19,0 14,9 5 3 - - E 1009,5 40 0 0,0
18.07.2019 18:00:00 19,1 14,7 8 4 - - ENE 1009,1 50 6 0,0
18.07.2019 17:00:00 18,9 14,3 8 4 - - ENE 1009,1 35 24 0,0
18.07.2019 16:00:00 19,2 14,4 5 3 - - N 1009,0 35 18 0,0
18.07.2019 15:00:00 18,8 15,3 9 5 - - NNW 1009,1 45 0 0,0
18.07.2019 14:00:00 18,5 15,8 11 6 - - NW 1008,9 13 0 0,2
18.07.2019 13:00:00 17,2 16,2 13 7 - - W 1008,6 8 0 0,2
18.07.2019 12:00:00 17,9 16,0 16 9 - - WSW 1008,4 23 0 0,0
18.07.2019 11:00:00 17,2 16,1 15 8 - - SW 1008,2 6 0 0,0
18.07.2019 10:00:00 16,5 15,6 18 10 - - SW 1008,2 8 0 0,0
18.07.2019 09:00:00 15,9 15,1 21 11 - - SW 1008,2 15 0 0,4
18.07.2019 08:00:00 16,9 13,8 18 10 - - SW 1008,1 30 0 0,0
18.07.2019 07:00:00 16,9 13,5 21 11 - - SW 1008,0 30 0 0,0
18.07.2019 06:00:00 16,5 13,3 18 10 - - SSW 1008,0 27 0 0,0
18.07.2019 05:00:00 16,3 13,6 15 8 - - S 1008,4 25 0 0,0
18.07.2019 04:00:00 16,1 13,4 13 7 - - S 1008,7 23 0 0,0
18.07.2019 03:00:00 16,7 14,2 13 7 - - S 1009,1 50 0 0,0
18.07.2019 02:00:00 16,6 14,5 8 4 - - SE 1009,7 45 0 0,0
18.07.2019 01:00:00 17,2 14,1 13 7 - - WSW 1010,3 40 - 0,0
18.07.2019 00:00:00 18,5 12,9 18 10 - - SSW 1010,3 45 0 0,0
17.07.2019 23:00:00 18,7 13,0 21 11 - - S 1010,1 40 0 0,0
17.07.2019 22:00:00 19,0 13,0 18 10 - - S 1010,2 45 0 0,0
17.07.2019 21:00:00 20,0 13,0 16 9 - - SSE 1010,1 50 0 0,0
17.07.2019 20:00:00 21,4 12,9 18 10 - - S 1010,4 40 0 0,0
17.07.2019 19:00:00 22,7 13,1 18 10 - - S 1010,8 40 0 0,0
17.07.2019 18:00:00 23,6 12,5 21 11 - - S 1011,0 50 0 0,0
17.07.2019 17:00:00 23,3 14,1 4 2 - - ESE 1011,3 35 0 0,0
17.07.2019 16:00:00 22,9 15,3 8 4 - - NNW 1011,7 35 0 0,0
17.07.2019 15:00:00 21,2 17,1 5 3 - - ENE 1012,2 17 12 0,0
17.07.2019 14:00:00 19,3 16,6 11 6 - - ENE 1012,7 12 12 0,0
17.07.2019 13:00:00 18,8 15,3 13 7 - - E 1013,4 14 12 0,0
17.07.2019 12:00:00 19,4 15,8 15 8 - - ENE 1013,9 19 48 0,0
17.07.2019 11:00:00 20,9 15,0 8 4 - - NNE 1014,1 35 60 0,0
17.07.2019 10:00:00 20,7 15,3 8 4 - - N 1014,4 17 60 0,0
17.07.2019 09:00:00 20,5 14,3 5 3 - - N 1014,7 35 60 0,0

tt = temperature
td = dewpoint
ff = wind speed
fx = gusts
dd = wind direction
ppp = reduced air pressure
vv = visibility
sd = sunshine duration
rr = precipitation

Next stations